Regional Weather Roundup
Issued by NWS Charleston, SC

Current Version | Previous Version | Graphics & Text | Print | Product List | Glossary On
Versions: 1 2 3 4 5 6 7 8 9 10 11 12 13 14 15 16 17 18 19 20 21 22 23 24 25 26 27 28 29 30 31 32 33 34 35 36 37 38 39 40 41 42 43 44 45 46 47 48 49 50
000 ASUS42 KCHS 060227 RWRCHS REGIONAL WEATHER ROUNDUP NATIONAL WEATHER SERVICE CHARLESTON SC 900 PM EST FRI FEB 05 2016 NOTE: "FAIR" INDICATES FEW OR NO CLOUDS BELOW 12,000 FEET WITH NO SIGNIFICANT WEATHER AND/OR OBSTRUCTIONS TO VISIBILITY. NOT ALL STATIONS ARE QUALITY CONTROLLED BY THE NATIONAL WEATHER SERVICE. USE DATA WITH CAUTION...ESPECIALLY DEWPOINT OBSERVATIONS. NOTICE: OBSERVATIONS FOR THE SAVANNAH-HILTON HEAD INTERNATIONAL AIRPORT /KSAV/ HAVE BEEN TEMPORARILY REMOVED DUE TO AN ERRONEOUS TEMPERATURE SENSOR. THE OBSERVATION WILL BE REINTRODUCED ONCE REPAIRS ARE COMPLETE. SCZ027-030-031-034>040-042>050-060300- ...SOUTHEAST SOUTH CAROLINA... CITY SKY/WX TMP DP RH WIND PRES REMARKS N CHARLESTON CLEAR 40 30 67 N3 30.38S WATERFRONT PRK N/A 48 33 56 VRB3 30.23R MOUNT PLEASANT FAIR 39 36 87 CALM 30.39R JOHNS ISLAND FAIR 39 34 81 NW3 30.39R PINOPOLIS N/A 50 28 43 N8 30.31R MONCKS CORNER FAIR 36 30 80 CALM 30.39R SUMMERVILLE NOT AVBL BEAUFORT MCAS CLEAR 42 29 59 NE6 30.39R BEAUFORT ARPT FAIR 43 32 65 N5 30.38S HILTON HEAD IS CLEAR 46 30 53 N7 30.39S WALTERBORO CLEAR 37 34 87 CALM 30.40S ALLENDALE FAIR 37 34 87 CALM 30.39R ...SOUTHERN MIDLANDS AND PEE DEE... CITY SKY/WX TMP DP RH WIND PRES REMARKS GEORGETOWN NOT AVBL KINGSTREE NOT AVBL ORANGEBURG CLEAR 38 28 67 NE5 30.38S WCI 34 BARNWELL FAIR 39 28 65 CALM 30.40R AIKEN FAIR 32 27 80 CALM 30.41S MANNING FAIR 32 30 93 CALM 30.39S COLUMBIA CLEAR 36 26 67 CALM 30.38S SUMTER CLEAR 37 25 61 NE1 30.37R FLORENCE CLEAR 38 26 62 N6 30.40R WCI 33 MYRTLE BEACH CLEAR 41 27 56 NE7 30.41 N MYRTLE BEACH CLEAR 37 34 89 CALM 30.39R $$ GAZ063-065-086>088-099>101-113>116-118-119-134>141-150-060300- ...SOUTHEAST GEORGIA... CITY SKY/WX TMP DP RH WIND PRES REMARKS SAVANNAH ARPT CLEAR 45 25 45 NE8 30.38R HUNTER AAF CLEAR 45 29 53 NE2 30.35S FORT STEWART CLEAR 38 33 83 CALM 30.35S STATESBORO CLEAR 39 38 99 CALM 30.39R SYLVANIA CLEAR 37 34 89 CALM 30.39R CLAXTON FAIR 38 36 90 CALM 30.39R ...CSRA...CENTRAL AND FAR SOUTHEAST GEORGIA... CITY SKY/WX TMP DP RH WIND PRES REMARKS THOMSON CLEAR 34 32 92 CALM 30.43R AUGUSTA-BUSH CLEAR 36 27 69 CALM 30.38S AUGUSTA-DANIEL CLEAR 45 19 35 NE7 30.38S SWAINSBORO FAIR 34 32 93 CALM 30.39R VIDALIA CLEAR 37 32 81 N3 30.38R EASTMAN FAIR 35 35 100 CALM 30.40S HAZLEHURST FAIR 42 32 67 NE3 30.36S ALMA CLEAR 36 34 92 CALM 30.36R WAYCROSS CLEAR 40 39 95 CALM 30.36S JESUP FAIR 41 37 87 CALM 30.37S BAXLEY FAIR 39 36 87 CALM 30.36S BRUNSWICK CLEAR 39 37 93 CALM 30.37S SAINT SIMONS CLEAR 46 35 65 NE5 30.36R $$ SCZ027-028-034-036>038-045-046-048>050-GAZ119-141-060300- ...LAKE AND SUPPLEMENTAL COASTAL OBSERVATIONS... STATION/POSITION TIME TEMP WIND PRES WAVE SWELL AIR SEA DIR/SP/G HT/PER HT/PER/DIR (UTC) (F) (DEG/KT/KT) (MB) (FT/S) (FT/S/D) WINYAH BAY 0100 42 350/ 4 1027.0R LAKE MURRAY 0200 40 CALM / 1 1028.1S ACE BASIN NERRS 0100 40 CALM 1028.0S FORT PULASKI 0200 49 55 50/ 6/ 11 1028.7S SAPELO ISLAND 0200 43 40/ 3 1028.0S $$ ANZ835-935-AMZ111-154-330-350-352-354-370-450-454-472-060300- ...C-MAN AND BUOY OBSERVATIONS... STATION/POSITION TIME TEMP WIND PRES WAVE SWELL AIR SEA DIR/SP/G HT/PER HT/PER/DIR (UTC) (F) (DEG/KT/KT) (MB) (FT/S) (FT/S/D) BUOY 41004 0150 51 67 30/ 16/ 19 1027.8R 4/ 6 2/ 8 BUOY 41008 0150 52 56 50/ 12/ 16 1028.0R 3/ 6 2/ 50/ 6 FOLLY BEACH CMAN 0200 48 20/ 10/ 13 1028.8R CAPERS NEARSHORE 0108 50 30/ 12/ 17 1027.8R FRIPP NEARSHORE 0100 50 20/ 14/ 16 1027.1R STATION/POSITION TIME TEMP WIND PRES WAVE SWELL AIR SEA DIR/SP/G HT/PER HT/PER/DIR (UTC) (F) (DEG/KT/KT) (MB) (FT/S) (FT/S/D) 5E ST. MARYS GA 0121 58 N/A 3/ 5 FRYING PAN BUOY 0200 50 70 10/ 16/ 19 1028.3R BUOY 41025 0150 71 360/ 19/ 25 1028.2R 7/10 5/ 40/10 CAPE LOOKOUT NC NOT AVBL BUOY 41002 0150 58 69 40/ 17/ 21 N/A 11/10 8/340/10 BUOY 41010 0120 65 73 1023.1R ST AUGUSTINE FL 0200 53 59 10/ 26/ 28 1026.5F $$

USA.gov is the U.S. government's official web portal to all federal, state and local government web resources and services.